Weather History for PAWG - February, 2014

Change the Weather History Date:

Monday, February 10, 2014

  Actual Average Record
Temperature  
Mean Temperature 22 °F -  
Max Temperature 24 °F 37 °F 48 °F (1991)
Min Temperature 19 °F 26 °F 10 °F (1975)
Degree Days  
Heating Degree Days 44    
Moisture  
Dew Point 3 °F    
Average Humidity 46    
Maximum Humidity 58    
Minimum Humidity 36    
Precipitation  
Precipitation 0.00 in - - ()
Sea Level Pressure  
Sea Level Pressure 29.68 in    
Wind  
Wind Speed 17 mph (East)    
Max Wind Speed 24 mph    
Max Gust Speed 32 mph    
Visibility 9 miles    
Events      
Averages and records for this station are not official NWS values.
T = Trace of Precipitation, MM = Missing Value Source: NWS Daily Summary

Daily Weather History Graph

Daily Weather History Graph

Search for Another Location

Airport or City:

Trip Planner

Search our weather history database for the weather conditions in past years. The results will help you decide how hot, cold, wet, or windy it might be!

Date:

Astronomy

Feb. 10, 2014 Rise Set
Actual Time 7:27 AM AKST 4:41 PM AKST
Civil Twilight 6:46 AM AKST 5:21 PM AKST
Nautical Twilight 6:02 AM AKST 6:05 PM AKST
Astronomical Twilight 5:18 AM AKST 6:49 PM AKST
Moon 12:56 PM AKST (2/10) 4:46 AM AKST (2/10)
Length of Visible Light 10h 34m
Length of Day
9h 14m
Waxing Gibbous, 85% of the Moon is Illuminated
Feb 10
Waxing Gibbous
Feb 14
Full
Feb 22
Last Quarter
Feb 28
New
Mar 8
First Quarter

Hourly Weather History & Observations

Time (AKST) Temp. Windchill Dew Point Humidity Pressure Visibility Wind Dir Wind Speed Gust Speed Precip Events Conditions
12:16 AM 19.4 °F 4.1 °F -0.4 °F 42% 29.94 in 10.0 mi East 18.4 mph 24.2 mph N/A   Clear
12:36 AM 19.4 °F 5.0 °F -0.4 °F 42% 29.93 in 10.0 mi East 16.1 mph - N/A   Clear
12:56 AM 21.2 °F 7.3 °F -0.4 °F 39% 29.93 in 10.0 mi East 16.1 mph 23.0 mph N/A   Clear
1:16 AM 19.4 °F 4.1 °F -2.2 °F 39% 29.91 in 10.0 mi East 18.4 mph - N/A   Clear
1:36 AM 19.4 °F 4.1 °F -0.4 °F 42% 29.90 in 10.0 mi East 18.4 mph 24.2 mph N/A   Clear
1:56 AM 21.2 °F 6.4 °F -0.4 °F 39% 29.89 in 10.0 mi East 18.4 mph - N/A   Clear
2:16 AM 21.2 °F 8.3 °F -0.4 °F 39% 29.89 in 10.0 mi East 13.8 mph - N/A   Clear
2:36 AM 21.2 °F 6.4 °F -0.4 °F 39% 29.88 in 10.0 mi East 18.4 mph 25.3 mph N/A   Clear
2:56 AM 21.2 °F 6.0 °F -0.4 °F 39% 29.87 in 10.0 mi East 19.6 mph 24.2 mph N/A   Partly Cloudy
3:16 AM 21.2 °F 6.4 °F -0.4 °F 39% 29.86 in 10.0 mi East 18.4 mph - N/A   Scattered Clouds
3:36 AM 21.2 °F 5.2 °F -0.4 °F 39% 29.84 in 10.0 mi East 21.9 mph 27.6 mph N/A   Mostly Cloudy
3:56 AM 21.2 °F 5.6 °F -0.4 °F 39% 29.83 in 10.0 mi ESE 20.7 mph 25.3 mph N/A   Overcast
4:16 AM 21.2 °F 8.3 °F 1.4 °F 42% 29.83 in 10.0 mi East 13.8 mph 23.0 mph N/A   Overcast
4:36 AM 21.2 °F 6.8 °F -0.4 °F 39% 29.81 in 10.0 mi East 17.3 mph 20.7 mph N/A   Mostly Cloudy
4:56 AM 21.2 °F 6.0 °F 1.4 °F 42% 29.79 in 10.0 mi East 19.6 mph 25.3 mph N/A   Partly Cloudy
5:16 AM 21.2 °F 7.3 °F -0.4 °F 39% 29.79 in 10.0 mi East 16.1 mph 20.7 mph N/A   Clear
5:36 AM 21.2 °F 5.6 °F -0.4 °F 39% 29.76 in 10.0 mi ENE 20.7 mph 31.1 mph N/A   Clear
5:56 AM 21.2 °F 7.8 °F -0.4 °F 39% 29.76 in 10.0 mi East 15.0 mph 24.2 mph N/A   Clear
6:16 AM 21.2 °F 5.6 °F -0.4 °F 39% 29.74 in 10.0 mi ENE 20.7 mph 28.8 mph N/A   Clear
6:36 AM 21.2 °F 5.6 °F -0.4 °F 39% 29.73 in 10.0 mi ENE 20.7 mph 25.3 mph N/A   Clear
6:56 AM 21.2 °F 7.3 °F -0.4 °F 39% 29.72 in 10.0 mi ENE 16.1 mph 21.9 mph N/A   Clear
7:16 AM 21.2 °F 5.6 °F -0.4 °F 39% 29.70 in 10.0 mi ENE 20.7 mph 24.2 mph N/A   Clear
7:36 AM 21.2 °F 7.8 °F -0.4 °F 39% 29.69 in 10.0 mi East 15.0 mph 23.0 mph N/A   Clear
7:56 AM 23.0 °F 9.2 °F -0.4 °F 36% 29.67 in 10.0 mi East 17.3 mph 24.2 mph N/A   Scattered Clouds
8:16 AM 21.2 °F 7.8 °F -0.4 °F 39% 29.66 in 10.0 mi East 15.0 mph 25.3 mph N/A   Scattered Clouds
8:36 AM 21.2 °F 6.0 °F 1.4 °F 42% 29.64 in 10.0 mi ENE 19.6 mph 26.5 mph N/A   Scattered Clouds
8:56 AM 21.2 °F 5.2 °F -0.4 °F 39% 29.63 in 10.0 mi ENE 21.9 mph 28.8 mph N/A   Scattered Clouds
9:16 AM 23.0 °F 9.2 °F 1.4 °F 39% 29.63 in 10.0 mi East 17.3 mph 24.2 mph N/A   Scattered Clouds
9:36 AM 23.0 °F 6.9 °F 1.4 °F 39% 29.61 in 10.0 mi ENE 24.2 mph 29.9 mph N/A   Scattered Clouds
9:56 AM 24.8 °F 10.7 °F 3.2 °F 40% 29.60 in 10.0 mi East 19.6 mph 27.6 mph N/A   Scattered Clouds
10:16 AM 24.8 °F 11.1 °F 3.2 °F 40% 29.59 in 10.0 mi East 18.4 mph 32.2 mph N/A   Scattered Clouds
10:36 AM 24.8 °F 10.3 °F 3.2 °F 40% 29.57 in 10.0 mi East 20.7 mph 28.8 mph N/A   Scattered Clouds
10:56 AM 24.8 °F 10.0 °F 3.2 °F 40% 29.57 in 10.0 mi ENE 21.9 mph 26.5 mph N/A   Mostly Cloudy
11:16 AM 24.8 °F 10.7 °F 3.2 °F 40% 29.57 in 10.0 mi ENE 19.6 mph 27.6 mph N/A   Mostly Cloudy
11:36 AM 24.8 °F 10.7 °F 3.2 °F 40% 29.56 in 10.0 mi ENE 19.6 mph 24.2 mph N/A   Mostly Cloudy
11:56 AM 24.8 °F 10.7 °F 3.2 °F 40% 29.56 in 10.0 mi ENE 19.6 mph - N/A   Mostly Cloudy
12:16 PM 24.8 °F 10.7 °F 1.4 °F 36% 29.55 in 10.0 mi ENE 19.6 mph 26.5 mph N/A   Mostly Cloudy
12:36 PM 24.8 °F 11.1 °F 3.2 °F 40% 29.55 in 10.0 mi East 18.4 mph - N/A   Mostly Cloudy
12:56 PM 24.8 °F 10.3 °F 3.2 °F 40% 29.55 in 10.0 mi ENE 20.7 mph 27.6 mph N/A   Mostly Cloudy
1:16 PM 24.8 °F 11.5 °F 3.2 °F 40% 29.55 in 10.0 mi East 17.3 mph 25.3 mph N/A   Mostly Cloudy
1:36 PM 24.8 °F 11.5 °F 3.2 °F 40% 29.55 in 10.0 mi ENE 17.3 mph 23.0 mph N/A   Mostly Cloudy
1:56 PM 24.8 °F 12.4 °F 3.2 °F 40% 29.55 in 10.0 mi ENE 15.0 mph 24.2 mph N/A   Mostly Cloudy
2:16 PM 23.0 °F 8.3 °F 5.0 °F 46% 29.55 in 10.0 mi ENE 19.6 mph 27.6 mph N/A   Mostly Cloudy
2:36 PM 21.2 °F 6.8 °F 6.8 °F 54% 29.56 in 9.0 mi East 17.3 mph 25.3 mph N/A   Mostly Cloudy
2:56 PM 21.2 °F 6.4 °F 6.8 °F 54% 29.56 in 8.0 mi ENE 18.4 mph 26.5 mph N/A   Overcast
3:16 PM 21.2 °F 7.8 °F 8.6 °F 58% 29.57 in 7.0 mi East 15.0 mph 25.3 mph N/A   Overcast
3:36 PM 21.2 °F 7.3 °F 8.6 °F 58% 29.58 in 7.0 mi ENE 16.1 mph 23.0 mph N/A   Overcast
3:56 PM 21.2 °F 10.1 °F 8.6 °F 58% 29.59 in 5.0 mi ENE 10.4 mph - N/A   Overcast
4:16 PM 21.2 °F 7.3 °F 8.6 °F 58% 29.59 in 5.0 mi East 16.1 mph 21.9 mph N/A   Overcast
4:36 PM 21.2 °F 6.8 °F 8.6 °F 58% 29.58 in 5.0 mi East 17.3 mph 21.9 mph N/A   Overcast
4:56 PM 21.2 °F 7.8 °F 8.6 °F 58% 29.59 in 6.0 mi East 15.0 mph 23.0 mph N/A   Overcast
5:16 PM 21.2 °F 7.3 °F 6.8 °F 54% 29.60 in 6.0 mi East 16.1 mph 21.9 mph N/A   Overcast
5:36 PM 21.2 °F 7.3 °F 6.8 °F 54% 29.60 in 6.0 mi East 16.1 mph 24.2 mph N/A   Overcast
5:56 PM 21.2 °F 6.8 °F 6.8 °F 54% 29.60 in 8.0 mi East 17.3 mph 24.2 mph N/A   Overcast
6:16 PM 21.2 °F 8.9 °F 6.8 °F 54% 29.61 in 8.0 mi ENE 12.7 mph 20.7 mph N/A   Overcast
6:36 PM 21.2 °F 9.5 °F 6.8 °F 54% 29.61 in 8.0 mi East 11.5 mph 20.7 mph N/A   Overcast
6:56 PM 21.2 °F 7.3 °F 6.8 °F 54% 29.61 in 8.0 mi East 16.1 mph 27.6 mph N/A   Overcast
7:16 PM 21.2 °F 7.8 °F 6.8 °F 54% 29.62 in 8.0 mi East 15.0 mph 20.7 mph N/A   Overcast
7:36 PM 21.2 °F 7.8 °F 6.8 °F 54% 29.63 in 8.0 mi East 15.0 mph 21.9 mph N/A   Overcast
7:56 PM 21.2 °F 8.3 °F 6.8 °F 54% 29.63 in 8.0 mi East 13.8 mph 20.7 mph N/A   Overcast
8:16 PM 21.2 °F 9.5 °F 6.8 °F 54% 29.64 in 8.0 mi East 11.5 mph 17.3 mph N/A   Overcast
8:36 PM 21.2 °F 8.3 °F 6.8 °F 54% 29.64 in 8.0 mi East 13.8 mph - N/A   Overcast
8:56 PM 21.2 °F 6.4 °F 6.8 °F 54% 29.64 in 8.0 mi East 18.4 mph 24.2 mph N/A   Overcast
9:16 PM 21.2 °F 8.3 °F 6.8 °F 54% 29.66 in 8.0 mi East 13.8 mph - N/A   Overcast
9:36 PM 21.2 °F 8.3 °F 6.8 °F 54% 29.66 in 8.0 mi East 13.8 mph 19.6 mph N/A   Overcast
9:56 PM 21.2 °F 8.3 °F 6.8 °F 54% 29.67 in 9.0 mi East 13.8 mph 19.6 mph N/A   Overcast
10:16 PM 21.2 °F 9.5 °F 5.0 °F 50% 29.68 in 9.0 mi ENE 11.5 mph - N/A   Overcast
10:36 PM 21.2 °F 8.3 °F 6.8 °F 54% 29.69 in 9.0 mi East 13.8 mph 20.7 mph N/A   Overcast
10:56 PM 21.2 °F 8.9 °F 6.8 °F 54% 29.70 in 9.0 mi East 12.7 mph - N/A   Overcast
11:16 PM 21.2 °F 8.9 °F 5.0 °F 50% 29.71 in 10.0 mi East 12.7 mph 19.6 mph N/A   Clear
11:36 PM 21.2 °F 7.8 °F 6.8 °F 54% 29.71 in 10.0 mi East 15.0 mph - N/A   Clear
11:56 PM 21.2 °F 8.3 °F 5.0 °F 50% 29.72 in 10.0 mi East 13.8 mph 20.7 mph N/A   Clear